Overview Statistics Trail Chart Weather Telemetry Raw packets
 

This is the latest recevied weather packets stored in our database for station/object IU8UOQ-5. If no packets are shown the sender has not sent any weather packets the latest 10 day(s).

<< 24 25 26 27 28 29 >>
Time Temp. Humidity Pressure Rain* Wind** Luminosity Snow
1787835316 34.44° C 50% 1009.2 hPa - - - -
1787834115 33.89° C 52% 1009.3 hPa - - - -
1787833177 33.89° C 48% 1009.4 hPa - - - -
1787831976 33.89° C 42% 1009.4 hPa - - - -
1787830775 34.44° C 46% 1009.6 hPa - - - -
1787829574 34.44° C 48% 1009.4 hPa - - - -
1787828372 33.89° C 49% 1009.4 hPa - - - -
1787827171 32.78° C 54% 1009.6 hPa - - - -
1787825970 32.78° C 56% 1009.7 hPa - - - -
1787824768 32.22° C 56% 1009.7 hPa - - - -
1787823567 32.22° C 59% 1009.5 hPa - - - -
1787822366 32.22° C 58% 1009.9 hPa - - - -
1787821165 31.67° C 59% 1009.9 hPa - - - -
1787819964 32.22° C 59% 1009.6 hPa - - - -
1787818762 32.22° C 54% 1009.5 hPa - - - -
1787817561 32.22° C 49% 1010.1 hPa - - - -
1787816360 31.67° C 48% 1010.7 hPa - - - -
1787815158 31.11° C 54% 1010.8 hPa - - - -
1787813957 31.11° C 51% 1010.8 hPa - - - -
1787812756 31.11° C 44% 1010.6 hPa - - - -
1787811555 30.56° C 46% 1010.5 hPa - - - -
1787810353 28.89° C 53% 1010.1 hPa - - - -
1787809152 28.33° C 57% 1010.2 hPa - - - -
1787807951 27.22° C 54% 1010.1 hPa - - - -
1787806750 26.67° C 57% 1009.3 hPa - - - -

* Rain since midnight (hover to see other rain measurements)
** Current wind speed in m/s (hover to see current wind gust speed)